This is the latest recevied weather packets stored in our database for station/object JH7UAX-10. If no packets are shown the sender has not sent any weather packets the latest 10 day(s).
| Time | Temp. | Humidity | Pressure | Rain* | Wind** | Luminosity | Snow |
|---|---|---|---|---|---|---|---|
| 1777970278 | 16.67° C | 62% | 1028.8 hPa | 0 mm | - | - | - |
| 1777969806 | 16.67° C | 60% | 1028.7 hPa | 0 mm | - | - | - |
| 1777969378 | 17.22° C | 61% | 1028.9 hPa | 0 mm | - | - | - |
| 1777968479 | 16.67° C | 66% | 1028.9 hPa | 0 mm | - | - | - |
| 1777968005 | 16.67° C | 66% | 1029 hPa | 0 mm | - | - | - |
| 1777967578 | 17.22° C | 65% | 1028.9 hPa | 0 mm | - | - | - |
| 1777966678 | 17.22° C | 64% | 1028.9 hPa | 0 mm | - | - | - |
| 1777966206 | 17.78° C | 65% | 1028.9 hPa | 0 mm | - | - | - |
| 1777965778 | 18.33° C | 58% | 1028.9 hPa | 0 mm | - | - | - |
| 1777964879 | 18.33° C | 60% | 1028.6 hPa | 0 mm | - | - | - |
| 1777964405 | 18.33° C | 59% | 1028.6 hPa | 0 mm | - | - | - |
| 1777963979 | 17.78° C | 61% | 1028.5 hPa | 0 mm | - | - | - |
| 1777963505 | 18.33° C | 59% | 1028.4 hPa | 0 mm | - | - | - |
| 1777963079 | 17.78° C | 62% | 1028.4 hPa | 0 mm | - | - | - |
| 1777962604 | 17.78° C | 63% | 1028.4 hPa | 0 mm | - | - | - |
| 1777962179 | 18.33° C | 63% | 1028.5 hPa | 0 mm | - | - | - |
| 1777961706 | 18.33° C | 59% | 1028.4 hPa | 0 mm | - | - | - |
| 1777961278 | 18.33° C | 63% | 1028.4 hPa | 0 mm | - | - | - |
| 1777960806 | 18.33° C | 59% | 1028.4 hPa | 0 mm | - | - | - |
| 1777960378 | 18.33° C | 63% | 1028.5 hPa | 0 mm | - | - | - |
| 1777959478 | 18.33° C | 56% | 1028.3 hPa | 0 mm | - | - | - |
| 1777959005 | 18.33° C | 55% | 1028.3 hPa | 0 mm | - | - | - |
| 1777958578 | 18.33° C | 58% | 1028.3 hPa | 0 mm | - | - | - |
| 1777958105 | 18.33° C | 55% | 1028.4 hPa | 0 mm | - | - | - |
| 1777957679 | 18.89° C | 56% | 1028.5 hPa | 0 mm | - | - | - |
* Rain latest hour (hover to see other rain measurements)
** Current wind speed in m/s (hover to see current wind gust speed)